| time (UTC) | temp F | wind direction | speed MPH | gust MPH | rain 1hr in | rain 24hr in | rain mn in | humidity % | barometer mb |
| 20260510215017 | 48 | 45 | 4.0 | 8.0 | 0.00 | 0.18 | 0.18 | 77 | 1013.2 |
| 20260510214017 | 48 | 23 | 3.0 | 7.0 | 0.00 | 0.18 | 0.18 | 77 | 1013.2 |
| 20260510213018 | 49 | 45 | 2.0 | 6.0 | 0.00 | 0.18 | 0.18 | 77 | 1013.2 |
| 20260510212038 | 49 | 45 | 1.0 | 3.0 | 0.00 | 0.18 | 0.18 | 76 | 1013.2 |
| 20260510211040 | 50 | 45 | 3.0 | 8.0 | 0.00 | 0.18 | 0.18 | 75 | 1013.2 |
| 20260510210018 | 50 | 45 | 3.0 | 4.0 | 0.00 | 0.18 | 0.18 | 75 | 1013.2 |
| 20260510205017 | 51 | 45 | 3.0 | 7.0 | 0.00 | 0.18 | 0.18 | 74 | 1013.2 |
| 20260510204040 | 51 | 68 | 2.0 | 8.0 | 0.00 | 0.18 | 0.18 | 74 | 1013.1 |
| 20260510203019 | 51 | 45 | 2.0 | 5.0 | 0.00 | 0.18 | 0.18 | 74 | 1013.1 |
| 20260510202018 | 52 | 45 | 2.0 | 4.0 | 0.00 | 0.18 | 0.18 | 73 | 1013.0 |
| 20260510201018 | 52 | 45 | 3.0 | 9.0 | 0.00 | 0.18 | 0.18 | 74 | 1012.9 |
| 20260510200017 | 52 | 45 | 3.0 | 9.0 | 0.00 | 0.18 | 0.18 | 76 | 1012.8 |
| 20260510195038 | 53 | 0.0 | 2.0 | 0.00 | 0.18 | 0.18 | 76 | 1012.8 | |
| 20260510194017 | 53 | 68 | 1.0 | 4.0 | 0.00 | 0.18 | 0.18 | 75 | 1012.7 |
| 20260510193017 | 54 | 68 | 1.0 | 3.0 | 0.00 | 0.18 | 0.18 | 74 | 1012.6 |
| 20260510192018 | 54 | 90 | 2.0 | 5.0 | 0.00 | 0.18 | 0.18 | 73 | 1012.5 |
| 20260510191017 | 54 | 45 | 3.0 | 10.0 | 0.00 | 0.18 | 0.18 | 72 | 1012.4 |
| 20260510190017 | 54 | 45 | 3.0 | 7.0 | 0.00 | 0.18 | 0.18 | 73 | 1012.4 |
| 20260510185018 | 54 | 45 | 5.0 | 8.0 | 0.00 | 0.18 | 0.18 | 72 | 1012.5 |
| 20260510184017 | 54 | 45 | 4.0 | 10.0 | 0.00 | 0.18 | 0.18 | 74 | 1012.5 |
| 20260510183017 | 54 | 45 | 5.0 | 11.0 | 0.00 | 0.18 | 0.18 | 73 | 1012.7 |
| 20260510182017 | 54 | 45 | 5.0 | 11.0 | 0.00 | 0.18 | 0.18 | 74 | 1012.9 |
| 20260510181018 | 54 | 45 | 7.0 | 14.0 | 0.00 | 0.18 | 0.18 | 74 | 1012.7 |
| 20260510180038 | 54 | 45 | 6.0 | 12.0 | 0.00 | 0.18 | 0.18 | 74 | 1012.7 |
| 20260510175037 | 54 | 45 | 5.0 | 11.0 | 0.00 | 0.18 | 0.18 | 74 | 1012.9 |
| 20260510174017 | 54 | 45 | 4.0 | 10.0 | 0.00 | 0.18 | 0.18 | 75 | 1013.0 |
| 20260510173018 | 54 | 45 | 7.0 | 15.0 | 0.00 | 0.18 | 0.18 | 74 | 1013.1 |
| 20260510172018 | 54 | 45 | 6.0 | 16.0 | 0.00 | 0.18 | 0.18 | 75 | 1013.2 |
| 20260510171016 | 54 | 45 | 7.0 | 14.0 | 0.00 | 0.18 | 0.18 | 75 | 1013.2 |
| 20260510170018 | 54 | 23 | 8.0 | 15.0 | 0.00 | 0.18 | 0.18 | 76 | 1013.2 |
| 20260510165040 | 54 | 45 | 10.0 | 22.0 | 0.00 | 0.18 | 0.18 | 76 | 1013.3 |
| 20260510164017 | 54 | 45 | 6.0 | 11.0 | 0.00 | 0.18 | 0.18 | 78 | 1013.3 |
| 20260510163037 | 54 | 45 | 5.0 | 16.0 | 0.00 | 0.18 | 0.18 | 78 | 1013.4 |
| 20260510162016 | 55 | 45 | 8.0 | 20.0 | 0.00 | 0.18 | 0.18 | 78 | 1013.6 |
| 20260510161016 | 54 | 45 | 6.0 | 15.0 | 0.00 | 0.18 | 0.18 | 80 | 1013.6 |
| 20260510160018 | 54 | 45 | 6.0 | 15.0 | 0.00 | 0.18 | 0.18 | 82 | 1013.8 |
| 20260510155016 | 54 | 45 | 7.0 | 14.0 | 0.00 | 0.18 | 0.18 | 82 | 1013.8 |
| 20260510154016 | 54 | 45 | 6.0 | 16.0 | 0.00 | 0.18 | 0.18 | 83 | 1013.9 |
| 20260510153018 | 54 | 45 | 6.0 | 13.0 | 0.00 | 0.18 | 0.18 | 83 | 1014.0 |
| 20260510152016 | 54 | 45 | 6.0 | 13.0 | 0.00 | 0.18 | 0.18 | 85 | 1014.1 |
| 20260510151016 | 54 | 45 | 6.0 | 13.0 | 0.00 | 0.18 | 0.18 | 86 | 1014.2 |
| 20260510150016 | 54 | 68 | 4.0 | 10.0 | 0.00 | 0.18 | 0.18 | 86 | 1014.3 |
| 20260510145036 | 54 | 45 | 7.0 | 14.0 | 0.00 | 0.18 | 0.18 | 86 | 1014.4 |
| 20260510144016 | 54 | 45 | 5.0 | 13.0 | 0.00 | 0.18 | 0.18 | 87 | 1014.6 |
| 20260510143038 | 54 | 45 | 6.0 | 14.0 | 0.01 | 0.18 | 0.18 | 88 | 1014.7 |
| 20260510142016 | 53 | 45 | 5.0 | 10.0 | 0.01 | 0.18 | 0.18 | 88 | 1014.7 |
| 20260510141016 | 53 | 45 | 5.0 | 11.0 | 0.01 | 0.18 | 0.18 | 89 | 1014.7 |
| 20260510140018 | 53 | 45 | 3.0 | 8.0 | 0.01 | 0.18 | 0.18 | 89 | 1014.8 |
| 20260510135016 | 52 | 23 | 6.0 | 16.0 | 0.01 | 0.18 | 0.18 | 88 | 1014.7 |
| 20260510134016 | 52 | 45 | 6.0 | 11.0 | 0.01 | 0.18 | 0.18 | 88 | 1014.9 |
| 20260510133016 | 52 | 45 | 6.0 | 14.0 | 0.00 | 0.17 | 0.17 | 88 | 1014.9 |
| 20260510132017 | 52 | 45 | 6.0 | 12.0 | 0.00 | 0.17 | 0.17 | 88 | 1015.0 |
| 20260510131016 | 52 | 45 | 5.0 | 13.0 | 0.01 | 0.17 | 0.17 | 89 | 1015.1 |
| 20260510130056 | 52 | 45 | 7.0 | 15.0 | 0.05 | 0.17 | 0.17 | 89 | 1015.1 |
| 20260510125017 | 52 | 45 | 4.0 | 10.0 | 0.06 | 0.17 | 0.17 | 89 | 1015.1 |
| 20260510124016 | 52 | 23 | 6.0 | 12.0 | 0.06 | 0.17 | 0.17 | 89 | 1015.0 |
| 20260510123017 | 52 | 45 | 6.0 | 11.0 | 0.08 | 0.17 | 0.17 | 89 | 1014.9 |
| 20260510122016 | 53 | 23 | 7.0 | 14.0 | 0.11 | 0.17 | 0.17 | 88 | 1014.9 |
| 20260510121018 | 53 | 0 | 6.0 | 12.0 | 0.11 | 0.17 | 0.17 | 88 | 1014.9 |
| 20260510120017 | 53 | 23 | 7.0 | 14.0 | 0.07 | 0.13 | 0.13 | 87 | 1015.2 |
| 20260510115038 | 53 | 45 | 6.0 | 10.0 | 0.06 | 0.12 | 0.12 | 87 | 1015.5 |
| 20260510114016 | 53 | 45 | 8.0 | 13.0 | 0.06 | 0.11 | 0.11 | 87 | 1015.6 |
| 20260510113018 | 53 | 45 | 5.0 | 12.0 | 0.06 | 0.09 | 0.09 | 86 | 1015.8 |
| 20260510112038 | 53 | 45 | 3.0 | 8.0 | 0.04 | 0.06 | 0.06 | 85 | 1016.0 |
| 20260510111017 | 53 | 45 | 4.0 | 9.0 | 0.03 | 0.06 | 0.06 | 85 | 1015.9 |
| 20260510110039 | 53 | 45 | 5.0 | 12.0 | 0.03 | 0.06 | 0.06 | 85 | 1015.9 |
| 20260510105016 | 53 | 23 | 5.0 | 12.0 | 0.03 | 0.06 | 0.06 | 85 | 1016.0 |
| 20260510104016 | 53 | 45 | 4.0 | 14.0 | 0.03 | 0.05 | 0.05 | 84 | 1016.0 |
| 20260510103016 | 53 | 45 | 5.0 | 10.0 | 0.02 | 0.03 | 0.03 | 84 | 1016.1 |
| 20260510102016 | 53 | 45 | 5.0 | 9.0 | 0.02 | 0.02 | 0.02 | 84 | 1016.0 |
| 20260510101017 | 53 | 68 | 3.0 | 7.0 | 0.02 | 0.02 | 0.02 | 84 | 1016.0 |
| 20260510100016 | 53 | 45 | 6.0 | 10.0 | 0.02 | 0.02 | 0.02 | 82 | 1016.0 |
| 20260510095019 | 53 | 45 | 6.0 | 15.0 | 0.02 | 0.02 | 0.02 | 82 | 1015.9 |
| 20260510094017 | 53 | 45 | 6.0 | 15.0 | 0.02 | 0.02 | 0.02 | 81 | 1015.7 |
| 20260510093016 | 53 | 45 | 7.0 | 14.0 | 0.02 | 0.02 | 0.02 | 80 | 1015.8 |
| 20260510092016 | 53 | 45 | 8.0 | 15.0 | 0.01 | 0.01 | 0.01 | 80 | 1015.8 |
| 20260510091016 | 54 | 45 | 6.0 | 11.0 | 0.00 | 0.00 | 0.00 | 79 | 1015.9 |
| 20260510090019 | 54 | 45 | 6.0 | 15.0 | 0.00 | 0.00 | 0.00 | 78 | 1016.0 |
| 20260510085017 | 54 | 45 | 5.0 | 13.0 | 0.00 | 0.00 | 0.00 | 77 | 1016.0 |
| 20260510084016 | 54 | 45 | 6.0 | 12.0 | 0.00 | 0.00 | 0.00 | 77 | 1016.0 |
| 20260510083016 | 54 | 23 | 7.0 | 12.0 | 0.00 | 0.00 | 0.00 | 76 | 1016.0 |
| 20260510082037 | 54 | 45 | 5.0 | 11.0 | 0.00 | 0.00 | 0.00 | 75 | 1016.0 |
| 20260510081016 | 54 | 45 | 5.0 | 12.0 | 0.00 | 0.00 | 0.00 | 73 | 1016.0 |
| 20260510080016 | 54 | 45 | 5.0 | 15.0 | 0.00 | 0.00 | 0.00 | 74 | 1016.0 |
| 20260510075016 | 54 | 45 | 7.0 | 14.0 | 0.00 | 0.00 | 0.00 | 74 | 1015.9 |
| 20260510074015 | 54 | 45 | 7.0 | 14.0 | 0.00 | 0.00 | 0.00 | 76 | 1015.8 |
| 20260510073015 | 53 | 45 | 7.0 | 16.0 | 0.00 | 0.00 | 0.00 | 76 | 1015.8 |
| 20260510072015 | 53 | 45 | 6.0 | 13.0 | 0.00 | 0.00 | 0.00 | 77 | 1015.8 |
| 20260510071017 | 53 | 45 | 6.0 | 11.0 | 0.00 | 0.00 | 0.00 | 77 | 1015.8 |
| 20260510070017 | 53 | 45 | 6.0 | 15.0 | 0.00 | 0.00 | 0.00 | 77 | 1015.9 |
| 20260510065015 | 53 | 45 | 6.0 | 14.0 | 0.00 | 0.00 | 0.00 | 77 | 1015.9 |
| 20260510064016 | 53 | 45 | 7.0 | 13.0 | 0.00 | 0.00 | 0.00 | 78 | 1015.9 |
| 20260510063016 | 53 | 23 | 8.0 | 16.0 | 0.00 | 0.00 | 0.00 | 77 | 1016.0 |
| 20260510062057 | 52 | 45 | 5.0 | 14.0 | 0.00 | 0.00 | 0.00 | 77 | 1016.0 |
| 20260510061017 | 52 | 45 | 7.0 | 14.0 | 0.00 | 0.00 | 0.00 | 77 | 1016.1 |
| 20260510060017 | 52 | 45 | 4.0 | 9.0 | 0.00 | 0.00 | 0.00 | 77 | 1016.2 |
| 20260510055017 | 52 | 45 | 5.0 | 11.0 | 0.00 | 0.00 | 0.00 | 77 | 1016.1 |
| 20260510054015 | 52 | 23 | 6.0 | 14.0 | 0.00 | 0.00 | 0.00 | 77 | 1016.1 |
| 20260510053037 | 52 | 45 | 6.0 | 15.0 | 0.00 | 0.00 | 0.00 | 77 | 1016.1 |
| 20260510052015 | 52 | 45 | 5.0 | 10.0 | 0.00 | 0.00 | 0.00 | 77 | 1016.0 |
| 20260510051015 | 52 | 68 | 6.0 | 14.0 | 0.00 | 0.00 | 0.00 | 77 | 1016.0 |
| 20260510050015 | 52 | 45 | 6.0 | 12.0 | 0.00 | 0.00 | 0.00 | 77 | 1015.9 |
| 20260510045038 | 52 | 45 | 8.0 | 16.0 | 0.00 | 0.00 | 0.00 | 76 | 1015.9 |
| 20260510044017 | 53 | 45 | 5.0 | 13.0 | 0.00 | 0.00 | 0.00 | 76 | 1015.9 |
| 20260510043037 | 53 | 45 | 7.0 | 16.0 | 0.00 | 0.00 | 0.00 | 75 | 1015.8 |
| 20260510042019 | 53 | 23 | 7.0 | 13.0 | 0.00 | 0.00 | 0.00 | 74 | 1015.9 |
| 20260510041019 | 53 | 23 | 6.0 | 12.0 | 0.00 | 0.00 | 0.00 | 74 | 1015.9 |
| 20260510040017 | 53 | 45 | 9.0 | 15.0 | 0.00 | 0.00 | 0.00 | 73 | 1016.0 |
| 20260510035039 | 54 | 45 | 6.0 | 12.0 | 0.00 | 0.00 | 0.00 | 73 | 1016.0 |
| 20260510034018 | 54 | 45 | 5.0 | 10.0 | 0.00 | 0.00 | 0.00 | 72 | 1016.0 |
| 20260510033019 | 54 | 45 | 6.0 | 14.0 | 0.00 | 0.00 | 0.00 | 72 | 1016.1 |
| 20260510032017 | 54 | 45 | 6.0 | 12.0 | 0.00 | 0.00 | 0.00 | 71 | 1016.2 |
| 20260510031019 | 54 | 45 | 7.0 | 15.0 | 0.00 | 0.00 | 0.00 | 71 | 1016.3 |
| 20260510030017 | 54 | 45 | 6.0 | 11.0 | 0.00 | 0.00 | 0.00 | 71 | 1016.4 |
| 20260510025036 | 55 | 45 | 7.0 | 14.0 | 0.00 | 0.00 | 0.00 | 71 | 1016.2 |
| 20260510024017 | 55 | 45 | 6.0 | 11.0 | 0.00 | 0.00 | 0.00 | 71 | 1016.2 |
| 20260510023041 | 55 | 45 | 5.0 | 11.0 | 0.00 | 0.00 | 0.00 | 70 | 1016.1 |
| 20260510022057 | 55 | 45 | 4.0 | 8.0 | 0.00 | 0.00 | 0.00 | 69 | 1016.2 |
| 20260510021017 | 55 | 45 | 5.0 | 11.0 | 0.00 | 0.00 | 0.00 | 68 | 1016.3 |
| 20260510020017 | 55 | 45 | 6.0 | 14.0 | 0.00 | 0.00 | 0.00 | 67 | 1016.3 |
| 20260510015017 | 55 | 45 | 5.0 | 13.0 | 0.00 | 0.00 | 0.00 | 65 | 1016.3 |
| 20260510014037 | 55 | 45 | 4.0 | 9.0 | 0.00 | 0.00 | 0.00 | 65 | 1016.4 |
| 20260510013019 | 56 | 45 | 5.0 | 10.0 | 0.00 | 0.00 | 0.00 | 64 | 1016.5 |
| 20260510012017 | 56 | 45 | 4.0 | 8.0 | 0.00 | 0.00 | 0.00 | 63 | 1016.4 |
| 20260510011059 | 56 | 45 | 4.0 | 9.0 | 0.00 | 0.00 | 0.00 | 63 | 1016.4 |
| 20260510010017 | 56 | 45 | 3.0 | 7.0 | 0.00 | 0.00 | 0.00 | 63 | 1016.4 |
| 20260510005018 | 56 | 90 | 3.0 | 6.0 | 0.00 | 0.00 | 0.00 | 62 | 1016.4 |
| 20260510004017 | 56 | 45 | 3.0 | 7.0 | 0.00 | 0.00 | 0.00 | 60 | 1016.4 |
| 20260510003017 | 57 | 90 | 3.0 | 8.0 | 0.00 | 0.00 | 0.00 | 59 | 1016.4 |
| 20260510002017 | 57 | 68 | 3.0 | 8.0 | 0.00 | 0.00 | 0.00 | 57 | 1016.5 |
| 20260510001019 | 57 | 68 | 2.0 | 4.0 | 0.00 | 0.00 | 0.00 | 57 | 1016.5 |
| 20260510000038 | 57 | 90 | 3.0 | 7.0 | 0.00 | 0.00 | 0.00 | 55 | 1016.4 |
| 20260509235037 | 57 | 90 | 4.0 | 13.0 | 0.00 | 0.00 | 0.00 | 55 | 1016.3 |
| 20260509234017 | 57 | 90 | 3.0 | 8.0 | 0.00 | 0.00 | 0.00 | 54 | 1016.2 |
| 20260509233017 | 57 | 45 | 3.0 | 9.0 | 0.00 | 0.00 | 0.00 | 52 | 1016.3 |
| 20260509232017 | 58 | 68 | 3.0 | 7.0 | 0.00 | 0.00 | 0.00 | 52 | 1016.3 |
| 20260509231017 | 58 | 45 | 5.0 | 11.0 | 0.00 | 0.00 | 0.00 | 50 | 1016.2 |
| 20260509230017 | 58 | 45 | 6.0 | 12.0 | 0.00 | 0.00 | 0.00 | 50 | 1016.3 |
| 20260509225017 | 58 | 45 | 3.0 | 9.0 | 0.00 | 0.00 | 0.00 | 49 | 1016.3 |
| 20260509223038 | 58 | 45 | 4.0 | 12.0 | 0.00 | 0.00 | 0.00 | 48 | 1016.2 |
| 20260509222057 | 59 | 45 | 4.0 | 9.0 | 0.00 | 0.00 | 0.00 | 47 | 1016.2 |
| 20260509221019 | 59 | 90 | 5.0 | 10.0 | 0.00 | 0.00 | 0.00 | 46 | 1016.2 |
| 20260509220018 | 59 | 68 | 4.0 | 10.0 | 0.00 | 0.00 | 0.00 | 45 | 1016.2 |